BREEZE-M DEB (TANK), 41312

Orbit data source: Space-Track

BREEZE-M DEB (TANK), 41312 is space debris in HEO originally from a launch on Fri, 29 Jan 2016 UTC launched from the Tyuratam Missile And Space Complex (TTMTR). Debris objects in space refer to the collection of defunct objects orbiting the Earth. Examples of debris include non-operational satellites, rocket bodies, and fragments generated from explosions, collisions, or faulty payload assembly.

Loading next visibility...
Identifier
41312, 2016-005C
Orbit
HEO
Country
Flag of CISCIS
Related business
Manufacturer
Khrunichev
Mission
Spacecraft
Bus & Motor
BRIZ TANK, Unknown motor
Mass
~1,000 kg wet, 1,000 kg dry
Launch date (UTC)
2016-01-29 (10 years ago)
Launch vehicle
Unknown
Launch site
Tyuratam Missile And Space Complex (TTMTR)
Object type
Payload
Rocket body
Debris
Shape & HBR
Torus, 2.0 m
Radar Cross Section
8.218 m², Large (>1 m²)

Expand to show TLE details & history
Last TLE update: 2 days ago

TLE from 2 days ago
0 BREEZE-M DEB (TANK)
1 41312U 16005C   25260.01807431  .00005264  00000-0  12326-2 0  9995
2 41312  49.4480 244.5805 5804264 292.8496  17.3669  4.32503763147815
Epoch: 2025-09-17T00:26Z
TLE epoch observation values (Epoch: 2025-09-17T00:26:01.62Z)
Latitude
-0.00006°
Longitude
-118.12226°
Altitude
2,237.992 km
Speed
8.215 km/s
True Right ascension
16h 18m 20s
True Declination
0° 00' 00"
Sunlit
Object was in daylight at epoch
Visualization orbit readout
Latitude
Unknown
Longitude
Unknown
Altitude
Unknown
Speed
Unknown
Apparent Right ascension
Unknown
Apparent Declination
Unknown
Sunlit
N/A
Visualization observer readout
Local Sidereal Time
03:29:00
Azimuth
Unknown
Elevation
Unknown
Doppler factor
Unknown
Orbital elements
Apogee altitude
18,771.702 km
Perigee altitude
298.674 km
Semi-major axis
15,913.325 km
Eccentricity
0.58043
Inclination
49.448°
RAAN
244.5805°
Arg. of periapsis
292.8496°
True anomaly
67.06728°
Mean anomaly
17.3669°
Eccentric anomaly
37.70709°
Mean motion
1.08119 °/min
Orbital period
332.97 mins
BSTAR
0.0012326
Loading maneuver chart data...
Computing Atmospheric mass density...
Loading historical data...
Loading historical data...
Loading historical data...
Loading historical data...
Loading historical data...
Loading historical data...
Loading historical data...
Other satellites on launch #5 in the year 2016 (2016-01-29 UTC)

Documentation

Showing up to 5 results
|